| time (UTC) | temp F | wind direction | speed MPH | gust MPH | rain 1hr in | rain 24hr in | rain mn in | humidity % | barometer mb |
| 20260505003626 | 72 | 154 | 3.0 | 4.0 | 0.00 | 0.00 | 0.00 | 53 | 1012.2 |
| 20260505003124 | 72 | 142 | 5.0 | 6.0 | 0.00 | 0.00 | 0.00 | 53 | 1012.4 |
| 20260505002619 | 73 | 184 | 2.0 | 2.0 | 0.00 | 0.00 | 0.00 | 53 | 1012.5 |
| 20260505002118 | 73 | 195 | 3.0 | 3.0 | 0.00 | 0.00 | 0.00 | 51 | 1012.5 |
| 20260505001614 | 73 | 142 | 4.0 | 4.0 | 0.00 | 0.00 | 0.00 | 50 | 1012.5 |
| 20260505001112 | 74 | 188 | 4.0 | 4.0 | 0.00 | 0.00 | 0.00 | 50 | 1012.7 |
| 20260505000609 | 74 | 182 | 2.0 | 3.0 | 0.00 | 0.00 | 0.00 | 49 | 1012.8 |
| 20260505000107 | 75 | 210 | 3.0 | 3.0 | 0.00 | 0.00 | 0.00 | 47 | 1012.9 |
| 20260504235603 | 75 | 207 | 4.0 | 4.0 | 0.00 | 0.00 | 0.00 | 47 | 1012.9 |
| 20260504235100 | 75 | 247 | 2.0 | 3.0 | 0.00 | 0.00 | 0.00 | 47 | 1012.9 |
| 20260504234557 | 75 | 165 | 3.0 | 3.0 | 0.00 | 0.00 | 0.00 | 46 | 1012.9 |
| 20260504234054 | 75 | 161 | 6.0 | 7.0 | 0.00 | 0.00 | 0.00 | 46 | 1012.8 |
| 20260504233549 | 75 | 154 | 3.0 | 4.0 | 0.00 | 0.00 | 0.00 | 45 | 1012.8 |
| 20260504233046 | 76 | 207 | 6.0 | 8.0 | 0.00 | 0.00 | 0.00 | 44 | 1012.7 |
| 20260504232543 | 76 | 222 | 6.0 | 7.0 | 0.00 | 0.00 | 0.00 | 44 | 1012.9 |
| 20260504232041 | 77 | 167 | 3.0 | 3.0 | 0.00 | 0.00 | 0.00 | 43 | 1013.0 |
| 20260504231537 | 77 | 225 | 2.0 | 2.0 | 0.00 | 0.00 | 0.00 | 45 | 1013.2 |
| 20260504231033 | 77 | 173 | 5.0 | 7.0 | 0.00 | 0.00 | 0.00 | 44 | 1013.1 |
| 20260504230530 | 77 | 164 | 6.0 | 7.0 | 0.00 | 0.00 | 0.00 | 43 | 1013.1 |
| 20260504230029 | 77 | 189 | 4.0 | 4.0 | 0.00 | 0.00 | 0.00 | 43 | 1013.2 |
| 20260504225525 | 78 | 168 | 6.0 | 7.0 | 0.00 | 0.00 | 0.00 | 41 | 1013.1 |
| 20260504225023 | 78 | 174 | 5.0 | 6.0 | 0.00 | 0.00 | 0.00 | 42 | 1013.3 |
| 20260504224519 | 78 | 269 | 3.0 | 3.0 | 0.00 | 0.00 | 0.00 | 41 | 1013.2 |
| 20260504224016 | 78 | 229 | 4.0 | 4.0 | 0.00 | 0.00 | 0.00 | 42 | 1013.3 |
| 20260504223513 | 78 | 197 | 6.0 | 8.0 | 0.00 | 0.00 | 0.00 | 41 | 1013.2 |
| 20260504223009 | 78 | 149 | 3.0 | 4.0 | 0.00 | 0.00 | 0.00 | 42 | 1013.5 |
| 20260504222506 | 78 | 207 | 4.0 | 4.0 | 0.00 | 0.00 | 0.00 | 39 | 1013.2 |
| 20260504222003 | 78 | 197 | 5.0 | 6.0 | 0.00 | 0.00 | 0.00 | 43 | 1013.4 |
| 20260504221500 | 78 | 224 | 6.0 | 7.0 | 0.00 | 0.00 | 0.00 | 42 | 1013.5 |
| 20260504220957 | 78 | 132 | 2.0 | 2.0 | 0.00 | 0.00 | 0.00 | 40 | 1013.6 |
| 20260504220454 | 78 | 195 | 6.0 | 8.0 | 0.00 | 0.00 | 0.00 | 40 | 1013.6 |
| 20260504215950 | 79 | 198 | 6.0 | 7.0 | 0.00 | 0.00 | 0.00 | 41 | 1013.6 |
| 20260504215447 | 78 | 221 | 5.0 | 7.0 | 0.00 | 0.00 | 0.00 | 42 | 1013.7 |
| 20260504214944 | 78 | 193 | 4.0 | 4.0 | 0.00 | 0.00 | 0.00 | 40 | 1013.9 |
| 20260504214440 | 78 | 207 | 5.0 | 7.0 | 0.00 | 0.00 | 0.00 | 41 | 1013.9 |
| 20260504213937 | 79 | 194 | 7.0 | 9.0 | 0.00 | 0.00 | 0.00 | 39 | 1013.7 |
| 20260504213433 | 78 | 210 | 2.0 | 2.0 | 0.00 | 0.00 | 0.00 | 44 | 1013.7 |
| 20260504212931 | 79 | 235 | 6.0 | 8.0 | 0.00 | 0.00 | 0.00 | 43 | 1013.7 |
| 20260504212426 | 78 | 181 | 3.0 | 3.0 | 0.00 | 0.00 | 0.00 | 42 | 1013.8 |
| 20260504211924 | 78 | 204 | 8.0 | 9.0 | 0.00 | 0.00 | 0.00 | 43 | 1014.0 |
| 20260504211420 | 78 | 197 | 9.0 | 10.0 | 0.00 | 0.00 | 0.00 | 44 | 1013.9 |
| 20260504210918 | 78 | 174 | 4.0 | 6.0 | 0.00 | 0.00 | 0.00 | 45 | 1014.0 |
| 20260504210415 | 78 | 164 | 4.0 | 7.0 | 0.00 | 0.00 | 0.00 | 45 | 1014.0 |
| 20260504205912 | 79 | 182 | 8.0 | 10.0 | 0.00 | 0.00 | 0.00 | 43 | 1014.0 |
| 20260504205409 | 79 | 198 | 2.0 | 3.0 | 0.00 | 0.00 | 0.00 | 43 | 1014.4 |
| 20260504204907 | 78 | 176 | 3.0 | 3.0 | 0.00 | 0.00 | 0.00 | 45 | 1014.4 |
| 20260504204405 | 79 | 261 | 5.0 | 7.0 | 0.00 | 0.00 | 0.00 | 43 | 1014.4 |
| 20260504203905 | 78 | 205 | 5.0 | 7.0 | 0.00 | 0.00 | 0.00 | 44 | 1014.4 |
| 20260504203401 | 78 | 231 | 4.0 | 4.0 | 0.00 | 0.00 | 0.00 | 42 | 1014.4 |
| 20260504202857 | 79 | 183 | 6.0 | 8.0 | 0.00 | 0.00 | 0.00 | 43 | 1014.6 |
| 20260504202354 | 79 | 208 | 3.0 | 3.0 | 0.00 | 0.00 | 0.00 | 47 | 1014.7 |
| 20260504201850 | 79 | 178 | 3.0 | 4.0 | 0.00 | 0.00 | 0.00 | 43 | 1014.5 |
| 20260504201348 | 78 | 130 | 2.0 | 3.0 | 0.00 | 0.00 | 0.00 | 45 | 1014.8 |
| 20260504200845 | 78 | 239 | 6.0 | 8.0 | 0.00 | 0.00 | 0.00 | 46 | 1014.8 |
| 20260504200342 | 78 | 176 | 6.0 | 7.0 | 0.00 | 0.00 | 0.00 | 43 | 1014.9 |
| 20260504195838 | 78 | 184 | 5.0 | 7.0 | 0.00 | 0.00 | 0.00 | 42 | 1014.9 |
| 20260504195334 | 78 | 156 | 8.0 | 9.0 | 0.00 | 0.00 | 0.00 | 44 | 1015.1 |
| 20260504194831 | 78 | 264 | 5.0 | 8.0 | 0.00 | 0.00 | 0.00 | 45 | 1015.2 |
| 20260504194327 | 78 | 211 | 4.0 | 7.0 | 0.00 | 0.00 | 0.00 | 43 | 1015.2 |
| 20260504193823 | 78 | 141 | 6.0 | 8.0 | 0.00 | 0.00 | 0.00 | 46 | 1015.3 |
| 20260504193321 | 78 | 152 | 10.0 | 11.0 | 0.00 | 0.00 | 0.00 | 44 | 1015.1 |
| 20260504192819 | 78 | 276 | 3.0 | 3.0 | 0.00 | 0.00 | 0.00 | 42 | 1015.7 |
| 20260504192317 | 78 | 270 | 4.0 | 4.0 | 0.00 | 0.00 | 0.00 | 44 | 1015.7 |
| 20260504191815 | 78 | 114 | 4.0 | 6.0 | 0.00 | 0.00 | 0.00 | 45 | 1015.8 |
| 20260504191312 | 79 | 206 | 8.0 | 9.0 | 0.00 | 0.00 | 0.00 | 45 | 1015.7 |
| 20260504190808 | 78 | 123 | 3.0 | 3.0 | 0.00 | 0.00 | 0.00 | 46 | 1015.7 |
| 20260504190304 | 79 | 132 | 7.0 | 9.0 | 0.00 | 0.00 | 0.00 | 43 | 1015.8 |
| 20260504185800 | 78 | 153 | 3.0 | 8.0 | 0.00 | 0.00 | 0.00 | 46 | 1015.7 |
| 20260504185258 | 77 | 238 | 5.0 | 6.0 | 0.00 | 0.00 | 0.00 | 46 | 1015.6 |
| 20260504184754 | 78 | 231 | 9.0 | 11.0 | 0.00 | 0.00 | 0.00 | 43 | 1015.7 |
| 20260504184250 | 78 | 210 | 4.0 | 4.0 | 0.00 | 0.00 | 0.00 | 43 | 1015.8 |
| 20260504183746 | 78 | 192 | 4.0 | 6.0 | 0.00 | 0.00 | 0.00 | 45 | 1015.8 |
| 20260504183243 | 77 | 153 | 6.0 | 7.0 | 0.00 | 0.00 | 0.00 | 47 | 1016.1 |
| 20260504182741 | 77 | 164 | 6.0 | 8.0 | 0.00 | 0.00 | 0.00 | 45 | 1016.0 |
| 20260504182238 | 77 | 186 | 2.0 | 3.0 | 0.00 | 0.00 | 0.00 | 44 | 1016.0 |
| 20260504181735 | 77 | 226 | 6.0 | 7.0 | 0.00 | 0.00 | 0.00 | 45 | 1016.2 |
| 20260504181232 | 77 | 176 | 6.0 | 8.0 | 0.00 | 0.00 | 0.00 | 45 | 1016.1 |
| 20260504180731 | 77 | 167 | 4.0 | 6.0 | 0.00 | 0.00 | 0.00 | 44 | 1016.5 |
| 20260504180230 | 77 | 208 | 4.0 | 6.0 | 0.00 | 0.00 | 0.00 | 44 | 1016.4 |
| 20260504175727 | 77 | 115 | 4.0 | 4.0 | 0.00 | 0.00 | 0.00 | 48 | 1016.6 |
| 20260504175223 | 77 | 236 | 4.0 | 4.0 | 0.00 | 0.00 | 0.00 | 48 | 1016.5 |
| 20260504174722 | 77 | 224 | 7.0 | 9.0 | 0.00 | 0.00 | 0.00 | 45 | 1016.6 |
| 20260504174220 | 77 | 141 | 6.0 | 8.0 | 0.00 | 0.00 | 0.00 | 47 | 1016.7 |
| 20260504173715 | 77 | 146 | 4.0 | 6.0 | 0.00 | 0.00 | 0.00 | 45 | 1016.7 |
| 20260504173213 | 77 | 216 | 4.0 | 4.0 | 0.00 | 0.00 | 0.00 | 43 | 1016.8 |
| 20260504172709 | 76 | 210 | 4.0 | 6.0 | 0.00 | 0.00 | 0.00 | 44 | 1016.8 |
| 20260504172206 | 77 | 249 | 6.0 | 8.0 | 0.00 | 0.00 | 0.00 | 45 | 1016.6 |
| 20260504171702 | 76 | 148 | 6.0 | 7.0 | 0.00 | 0.00 | 0.00 | 46 | 1016.9 |
| 20260504171159 | 76 | 153 | 7.0 | 9.0 | 0.00 | 0.00 | 0.00 | 44 | 1016.7 |
| 20260504170655 | 76 | 173 | 9.0 | 11.0 | 0.00 | 0.00 | 0.00 | 45 | 1016.9 |
| 20260504170153 | 76 | 187 | 7.0 | 10.0 | 0.00 | 0.00 | 0.00 | 48 | 1016.9 |
| 20260504160112 | 75 | 138 | 7.0 | 8.0 | 0.00 | 0.00 | 0.00 | 45 | 1017.3 |
| 20260504151039 | 74 | 176 | 5.0 | 6.0 | 0.00 | 0.00 | 0.00 | 51 | 1017.6 |
| 20260504150537 | 73 | 157 | 3.0 | 4.0 | 0.00 | 0.00 | 0.00 | 57 | 1017.5 |
| 20260504141002 | 70 | 276 | 1.0 | 1.0 | 0.00 | 0.00 | 0.00 | 63 | 1017.5 |
| 20260504140459 | 69 | 157 | 3.0 | 3.0 | 0.00 | 0.00 | 0.00 | 67 | 1017.8 |
| 20260504130423 | 68 | 97 | 0.0 | 0.0 | 0.00 | 0.00 | 0.00 | 74 | 1017.4 |
| 20260504110310 | 52 | 96 | 0.0 | 0.0 | 0.00 | 0.00 | 0.00 | 96 | 1016.8 |
| 20260504100228 | 53 | 80 | 0.0 | 0.0 | 0.00 | 0.00 | 0.00 | 94 | 1016.9 |
| 20260504081621 | 55 | 80 | 0.0 | 0.0 | 0.00 | 0.00 | 0.00 | 88 | 1017.0 |
| 20260504081117 | 55 | 80 | 0.0 | 0.0 | 0.00 | 0.00 | 0.00 | 88 | 1017.3 |
| 20260504080614 | 55 | 80 | 0.0 | 0.0 | 0.00 | 0.00 | 0.00 | 87 | 1017.2 |
| 20260504080110 | 56 | 80 | 0.0 | 0.0 | 0.00 | 0.00 | 0.00 | 86 | 1017.1 |
| 20260504050427 | 59 | 129 | 0.0 | 0.0 | 0.00 | 0.00 | 0.00 | 81 | 1018.2 |
| 20260504045924 | 60 | 129 | 1.0 | 1.0 | 0.00 | 0.00 | 0.00 | 81 | 1018.4 |
| 20260504045420 | 59 | 164 | 1.0 | 1.0 | 0.00 | 0.00 | 0.00 | 81 | 1018.3 |
| 20260504044916 | 59 | 137 | 0.0 | 0.0 | 0.00 | 0.00 | 0.00 | 80 | 1018.3 |
| 20260504044414 | 59 | 137 | 0.0 | 0.0 | 0.00 | 0.00 | 0.00 | 80 | 1018.5 |
| 20260504043911 | 60 | 137 | 0.0 | 0.0 | 0.00 | 0.00 | 0.00 | 79 | 1018.5 |
| 20260504043408 | 60 | 137 | 0.0 | 0.0 | 0.00 | 0.00 | 0.00 | 78 | 1018.6 |
| 20260504042905 | 61 | 137 | 0.0 | 0.0 | 0.00 | 0.00 | 0.00 | 78 | 1018.8 |
| 20260504042401 | 61 | 126 | 1.0 | 2.0 | 0.00 | 0.00 | 0.00 | 79 | 1018.6 |
| 20260504041858 | 61 | 118 | 2.0 | 2.0 | 0.00 | 0.00 | 0.00 | 79 | 1018.5 |
| 20260504041354 | 60 | 164 | 2.0 | 2.0 | 0.00 | 0.00 | 0.00 | 81 | 1018.5 |
| 20260504040850 | 60 | 136 | 2.0 | 3.0 | 0.00 | 0.00 | 0.00 | 80 | 1018.5 |
| 20260504040348 | 60 | 109 | 0.0 | 0.0 | 0.00 | 0.00 | 0.00 | 80 | 1018.7 |
| 20260504035843 | 60 | 159 | 0.0 | 0.0 | 0.00 | 0.00 | 0.00 | 80 | 1018.6 |
| 20260504035342 | 60 | 159 | 0.0 | 0.0 | 0.00 | 0.00 | 0.00 | 81 | 1018.6 |
| 20260504034838 | 60 | 188 | 0.0 | 0.0 | 0.00 | 0.00 | 0.00 | 81 | 1018.7 |
| 20260504034336 | 60 | 110 | 0.0 | 0.0 | 0.00 | 0.00 | 0.00 | 81 | 1018.6 |
| 20260504033832 | 60 | 110 | 0.0 | 0.0 | 0.00 | 0.00 | 0.00 | 77 | 1018.7 |
| 20260504033331 | 61 | 110 | 0.0 | 0.0 | 0.00 | 0.00 | 0.00 | 75 | 1018.6 |
| 20260504032827 | 61 | 110 | 0.0 | 0.0 | 0.00 | 0.00 | 0.00 | 74 | 1018.8 |
| 20260504032324 | 61 | 110 | 0.0 | 0.0 | 0.00 | 0.00 | 0.00 | 74 | 1018.6 |
| 20260504031821 | 61 | 110 | 0.0 | 0.0 | 0.00 | 0.00 | 0.00 | 74 | 1018.5 |
| 20260504031319 | 61 | 110 | 0.0 | 0.0 | 0.00 | 0.00 | 0.00 | 73 | 1018.5 |
| 20260504030814 | 61 | 110 | 0.0 | 0.0 | 0.00 | 0.00 | 0.00 | 73 | 1018.6 |
| 20260504030312 | 62 | 110 | 0.0 | 0.0 | 0.00 | 0.00 | 0.00 | 74 | 1018.6 |
| 20260504025802 | 63 | 110 | 0.0 | 0.0 | 0.00 | 0.00 | 0.00 | 74 | 1018.7 |
| 20260504025300 | 63 | 110 | 0.0 | 0.0 | 0.00 | 0.00 | 0.00 | 68 | 1018.5 |
| 20260504024756 | 63 | 110 | 0.0 | 1.0 | 0.00 | 0.00 | 0.00 | 70 | 1018.4 |
| 20260504024253 | 63 | 124 | 1.0 | 1.0 | 0.00 | 0.00 | 0.00 | 70 | 1018.4 |
| 20260504023750 | 63 | 111 | 0.0 | 0.0 | 0.00 | 0.00 | 0.00 | 68 | 1018.3 |
| 20260504023246 | 63 | 112 | 0.0 | 0.0 | 0.00 | 0.00 | 0.00 | 69 | 1018.4 |
| 20260504022742 | 63 | 112 | 0.0 | 0.0 | 0.00 | 0.00 | 0.00 | 69 | 1018.3 |
| 20260504022238 | 63 | 111 | 0.0 | 0.0 | 0.00 | 0.00 | 0.00 | 67 | 1018.3 |
| 20260504021735 | 64 | 111 | 0.0 | 0.0 | 0.00 | 0.00 | 0.00 | 67 | 1018.2 |
| 20260504021233 | 64 | 130 | 0.0 | 0.0 | 0.00 | 0.00 | 0.00 | 69 | 1018.1 |
| 20260504020729 | 64 | 130 | 0.0 | 0.0 | 0.00 | 0.00 | 0.00 | 69 | 1018.1 |
| 20260504020226 | 64 | 131 | 0.0 | 0.0 | 0.00 | 0.00 | 0.00 | 65 | 1017.9 |
| 20260504015722 | 64 | 131 | 0.0 | 0.0 | 0.00 | 0.00 | 0.00 | 62 | 1018.0 |
| 20260504015219 | 65 | 131 | 0.0 | 0.0 | 0.00 | 0.00 | 0.00 | 62 | 1017.7 |
| 20260504014714 | 65 | 131 | 0.0 | 0.0 | 0.00 | 0.00 | 0.00 | 59 | 1017.8 |
| 20260504014211 | 66 | 131 | 0.0 | 0.0 | 0.00 | 0.00 | 0.00 | 60 | 1017.8 |
| 20260504013709 | 66 | 131 | 0.0 | 0.0 | 0.00 | 0.00 | 0.00 | 61 | 1017.7 |
| 20260504013206 | 66 | 131 | 0.0 | 0.0 | 0.00 | 0.00 | 0.00 | 62 | 1017.7 |
| 20260504012703 | 66 | 132 | 0.0 | 0.0 | 0.00 | 0.00 | 0.00 | 62 | 1017.6 |
| 20260504012201 | 66 | 149 | 0.0 | 0.0 | 0.00 | 0.00 | 0.00 | 63 | 1017.4 |
| 20260504011658 | 66 | 156 | 0.0 | 0.0 | 0.00 | 0.00 | 0.00 | 62 | 1017.7 |
| 20260504011154 | 67 | 152 | 0.0 | 0.0 | 0.00 | 0.00 | 0.00 | 61 | 1017.6 |
| 20260504010650 | 68 | 151 | 0.0 | 0.0 | 0.00 | 0.00 | 0.00 | 59 | 1017.5 |
| 20260504010145 | 68 | 164 | 1.0 | 1.0 | 0.00 | 0.00 | 0.00 | 58 | 1017.5 |
| 20260504005643 | 68 | 150 | 0.0 | 1.0 | 0.00 | 0.00 | 0.00 | 57 | 1017.6 |
| 20260504005139 | 69 | 162 | 0.0 | 0.0 | 0.00 | 0.00 | 0.00 | 55 | 1017.4 |
| 20260504004638 | 69 | 156 | 0.0 | 0.0 | 0.00 | 0.00 | 0.00 | 55 | 1017.4 |
| 20260504004135 | 70 | 146 | 1.0 | 1.0 | 0.00 | 0.00 | 0.00 | 53 | 1017.3 |